Beaver Lake Weather Center

Moon Phase Calendar



Beaver Lake Water Level
Online Cameras

 


      

Current Conditions in Prairie Creek
1/29/2023 11:22:50 PM

23°F
Feels Like 16
Clouds
Humidity
96%
Pressure
30.24"
Wind
5.8 mph (N)
Dew Point
22°F
UV Index
0/10 (Low)
Visibility
3 mi

Hourly Forecast

Date & Time Sun, Jan 29
11:00 PM
Mon, Jan 30
12:00 AM
Mon, Jan 30
1:00 AM
Mon, Jan 30
2:00 AM
Mon, Jan 30
3:00 AM
Mon, Jan 30
4:00 AM
Mon, Jan 30
5:00 AM
Mon, Jan 30
6:00 AM
Mon, Jan 30
7:00 AM
Mon, Jan 30
8:00 AM
Mon, Jan 30
9:00 AM
Mon, Jan 30
10:00 AM
Mon, Jan 30
11:00 AM
Mon, Jan 30
12:00 PM
Mon, Jan 30
1:00 PM
Mon, Jan 30
2:00 PM
Mon, Jan 30
3:00 PM
Mon, Jan 30
4:00 PM
Mon, Jan 30
5:00 PM
Mon, Jan 30
6:00 PM
Mon, Jan 30
7:00 PM
Mon, Jan 30
8:00 PM
Mon, Jan 30
9:00 PM
Mon, Jan 30
10:00 PM
Mon, Jan 30
11:00 PM
Tue, Jan 31
12:00 AM
Tue, Jan 31
1:00 AM
Tue, Jan 31
2:00 AM
Tue, Jan 31
3:00 AM
Tue, Jan 31
4:00 AM
Tue, Jan 31
5:00 AM
Tue, Jan 31
6:00 AM
Tue, Jan 31
7:00 AM
Tue, Jan 31
8:00 AM
Tue, Jan 31
9:00 AM
Tue, Jan 31
10:00 AM
Tue, Jan 31
11:00 AM
Tue, Jan 31
12:00 PM
Tue, Jan 31
1:00 PM
Tue, Jan 31
2:00 PM
Tue, Jan 31
3:00 PM
Tue, Jan 31
4:00 PM
Tue, Jan 31
5:00 PM
Tue, Jan 31
6:00 PM
Tue, Jan 31
7:00 PM
Tue, Jan 31
8:00 PM
Tue, Jan 31
9:00 PM
Tue, Jan 31
10:00 PM
Condition
Clouds

Clouds

Clouds

Clouds

Clouds

Clouds

Clouds

Clouds

Clouds

Clouds

Clouds

Clouds

Clouds

Clouds

Clouds

Clouds

Clouds

Clouds

Snow

Snow

Clouds

Snow

Clouds

Clouds

Clouds

Clouds

Clouds

Clouds

Clouds

Clouds

Clouds

Clouds

Clouds

Clouds

Clouds

Clouds

Clouds

Snow

Snow

Snow

Snow

Snow

Snow

Clouds

Clouds

Clouds

Clouds

Clouds
Temperature 23°F24°F25°F25°F26°F26°F26°F25°F24°F24°F25°F27°F30°F33°F35°F32°F31°F30°F29°F28°F28°F28°F28°F28°F28°F28°F27°F27°F26°F25°F25°F25°F25°F25°F27°F29°F31°F30°F28°F28°F27°F28°F28°F28°F28°F28°F28°F28°F
Feels Like 14°F15°F16°F17°F17°F17°F16°F15°F15°F14°F16°F19°F24°F27°F29°F26°F24°F24°F22°F21°F21°F21°F21°F21°F21°F21°F20°F20°F19°F18°F18°F19°F19°F17°F20°F22°F26°F25°F22°F23°F22°F23°F22°F22°F22°F22°F22°F23°F
Cloudiness 100%100%100%100%100%100%100%100%100%100%99%98%98%94%99%100%100%100%100%100%100%100%100%100%100%100%100%100%100%100%100%100%100%100%100%100%100%100%100%100%100%100%100%100%100%100%100%100%
Visibility 6 mi6 mi6 mi6 mi6 mi6 mi6 mi6 mi6 mi6 mi6 mi6 mi6 mi6 mi6 mi6 mi6 mi6 mi6 mi6 mi6 mi6 mi6 mi6 mi6 mi6 mi6 mi6 mi6 mi6 mi6 mi6 mi6 mi6 mi6 mi6 mi6 mi2 mi0 mi3 mi0 mi2 mi1 mi6 mi6 mi6 mi6 mi6 mi
Precipitation 26%15%21%21%18%9%5%0%0%0%0%0%0%0%0%12%12%13%36%52%47%41%36%33%20%16%0%0%0%0%0%0%0%0%0%0%2%28%96%100%100%100%100%80%5%0%0%0%
Humidity 96%93%91%88%86%83%82%81%79%76%72%66%60%56%54%60%62%62%67%72%72%73%73%72%73%73%71%70%71%69%68%67%67%66%60%55%53%64%89%85%93%89%90%89%88%89%89%90%
Dew Point 22°F22°F23°F23°F23°F21°F20°F19°F18°F17°F16°F17°F18°F19°F19°F19°F19°F18°F19°F20°F20°F20°F20°F20°F20°F20°F19°F18°F17°F16°F15°F15°F15°F15°F14°F15°F16°F19°F24°F24°F25°F25°F25°F24°F24°F24°F24°F25°F
Pressure 30.24"30.27"30.27"30.3"30.33"30.36"30.36"30.39"30.42"30.45"30.45"30.45"30.45"30.42"30.36"30.36"30.36"30.39"30.39"30.42"30.42"30.42"30.42"30.42"30.42"30.42"30.42"30.42"30.45"30.42"30.42"30.42"30.45"30.42"30.45"30.42"30.42"30.42"30.45"30.39"30.39"30.39"30.39"30.39"30.39"30.39"30.39"30.39"
Wind Speed 7.6 mph8 mph8 mph8.2 mph8.6 mph9.1 mph9.3 mph9.4 mph9 mph9.3 mph8.7 mph7.8 mph7 mph7.1 mph7.6 mph7.4 mph7.7 mph6.3 mph6.4 mph6.6 mph6.8 mph6.6 mph6.8 mph6.2 mph6.4 mph6.5 mph6.4 mph6.2 mph6 mph6.3 mph6 mph5.5 mph5.2 mph6.9 mph5.8 mph7.7 mph5.2 mph4.8 mph5 mph4 mph4.6 mph4.8 mph4.8 mph5 mph5 mph4.9 mph4.9 mph3.9 mph
Wind
Direction
14°
NNE
13°
NNE
12°
NNE
12°
NNE
14°
NNE
20°
NNE
19°
NNE
19°
NNE
15°
NNE
18°
NNE
21°
NNE
23°
NNE
22°
NNE
24°
NNE
14°
NNE

N
17°
NNE
17°
NNE
22°
NNE
33°
NNE
47°
NE
46°
NE
50°
NE
48°
NE
51°
NE
50°
NE
52°
NE
52°
NE
44°
NE
44°
NE
47°
NE
50°
NE
48°
NE
52°
NE
56°
NE
52°
NE
57°
ENE
85°
E
334°
NNW
358°
N
10°
N
28°
NNE
41°
NE
55°
NE
67°
ENE
72°
ENE
87°
E
88°
E

Daily Forecast

Date High Low Precip. Humidity
Today
Jan 29

Snow
48 °F
23 °F
41%
85%
Monday
Jan 30

Snow
35 °F
24 °F
52%
56%
Tuesday
Jan 31

Snow
31 °F
25 °F
100%
64%
Wednesday
Feb 1

Clouds
43 °F
26 °F
4%
73%
Thursday
Feb 2

Rain
47 °F
34 °F
87%
89%
Friday
Feb 3

Clear
45 °F
25 °F
0%
54%
Saturday
Feb 4

Clouds
47 °F
33 °F
0%
61%
Sunday
Feb 5

Clear
55 °F
36 °F
0%
43%
Monday
Feb 6

Clouds
56 °F
36 °F
0%
42%
Tuesday
Feb 7

Rain
59 °F
51 °F
100%
82%
Wednesday
Feb 8

Rain
56 °F
40 °F
100%
67%
Thursday
Feb 9

Clouds
45 °F
33 °F
0%
47%
Friday
Feb 10

Clear
39 °F
26 °F
0%
41%
Saturday
Feb 11

Clear
33 °F
22 °F
0%
23%
Sunday
Feb 12

Clouds
48 °F
22 °F
0%
21%
Monday
Feb 13

Rain
56 °F
41 °F
100%
91%

Temperature 8-14 Day Outlook



Precipitation 8-14 Day Outlook






About Us
Contact Us
Site Map
Search Site
Advertise With Us
   
Beaver.USLakes.info
THE BEAVER LAKE WEBSITE

Copyright 2023, Lakes Online
Privacy    |    Legal